Orbital Elements at Epoch 2459200.5 (2020-Dec-17.0) TDB
Reference: JPL 40 (heliocentric ecliptic J2000)
Element | Value | Uncertainty (1-sigma) | Units |
e | .2047952365695953 | 3.6212e-08 | |
a | 2.438530827368282 | 5.7699e-09 | au |
q | 1.939131329695144 | 8.8777e-08 | au |
i | 4.711715419614309 | 3.8952e-06 | deg |
node | 351.5514970034457 | 3.3699e-05 | deg |
peri | 10.97803873248944 | 3.4477e-05 | deg |
M | 27.10567278293861 | 6.1766e-06 | deg |
tp | 2459095.775452456960 (2020-Sep-03.27545246) | 2.3897e-05 | TDB |
period | 1390.883650717744 3.81 | 4.9365e-06 1.352e-08 | d yr |
n | .2588282634670611 | 9.1864e-10 | deg/d |
Q | 2.93793032504142 | 6.9516e-09 | au |
|
| | Orbit Determination Parameters
Additional Information
|